BIRD002 LLBG-LLER

Flight info

Callsign BIRD002
Flight time 0h 28m
Altitude 24000
Route TOMAL J10 NURIT
Aircraft C750/M-SBDE3FGHRWXY/S

Departure

Time 2026-05-04 13:02
Airport Ben Gurion International Airport (LLBG)

Arrival

Time 2026-05-04 13:31
Airport Ramon International Airport (LLER)
Time Latitude Longitude Altitude Speed Heading
2026-05-04 12:41 32.00220 34.89730 116 ft 0 kts 143°
2026-05-04 12:51 32.00221 34.89730 116 ft 1 kts 143°
2026-05-04 12:52 32.00238 34.89712 112 ft 4 kts 139°
2026-05-04 12:52 32.00259 34.89695 113 ft 4 kts 163°
2026-05-04 12:52 32.00284 34.89693 115 ft 4 kts 194°
2026-05-04 12:52 32.00298 34.89698 116 ft 1 kts 198°
2026-05-04 12:53 32.00303 34.89700 116 ft 0 kts 198°
2026-05-04 12:56 32.00259 34.89680 116 ft 19 kts 208°
2026-05-04 12:56 32.00248 34.89585 116 ft 11 kts 249°
2026-05-04 12:56 32.00282 34.89424 116 ft 31 kts 301°
2026-05-04 12:57 32.00367 34.89258 116 ft 5 kts 301°
2026-05-04 12:57 32.00389 34.89214 114 ft 13 kts 300°
2026-05-04 12:57 32.00476 34.89041 116 ft 30 kts 301°
2026-05-04 12:57 32.00651 34.89042 116 ft 27 kts 26°
2026-05-04 12:58 32.00811 34.89148 116 ft 28 kts 28°
2026-05-04 12:58 32.00986 34.89259 116 ft 28 kts 28°
2026-05-04 12:58 32.01154 34.89366 116 ft 27 kts 29°
2026-05-04 12:58 32.01315 34.89472 116 ft 26 kts 28°
2026-05-04 12:59 32.01493 34.89586 116 ft 31 kts 28°
2026-05-04 12:59 32.01660 34.89691 115 ft 15 kts 29°
2026-05-04 12:59 32.01668 34.89697 115 ft 0 kts 29°
2026-05-04 13:01 32.01687 34.89709 115 ft 13 kts 28°
2026-05-04 13:01 32.01826 34.89759 113 ft 23 kts 321°
2026-05-04 13:01 32.01824 34.89609 114 ft 6 kts 261°
2026-05-04 13:01 32.01823 34.89600 114 ft 6 kts 261°
2026-05-04 13:02 32.01758 34.89179 115 ft 107 kts 260°
2026-05-04 13:02 32.01617 34.88173 524 ft 136 kts 261°
2026-05-04 13:02 32.01431 34.87063 1345 ft 138 kts 257°
2026-05-04 13:02 32.01255 34.85977 2317 ft 131 kts 259°
2026-05-04 13:03 32.01058 34.84962 3231 ft 128 kts 256°
2026-05-04 13:03 32.00822 34.83960 4141 ft 124 kts 259°
2026-05-04 13:03 32.01274 34.83040 4652 ft 166 kts 328°
2026-05-04 13:03 32.02488 34.83334 5235 ft 202 kts 39°
2026-05-04 13:04 32.02805 34.84853 6147 ft 195 kts 111°
2026-05-04 13:04 32.02002 34.86150 6694 ft 203 kts 135°
2026-05-04 13:04 32.01409 34.87703 7466 ft 212 kts 111°
2026-05-04 13:04 32.00857 34.89350 8163 ft 224 kts 120°
2026-05-04 13:05 32.00082 34.91044 8837 ft 244 kts 124°
2026-05-04 13:05 31.99209 34.92891 9324 ft 275 kts 122°
2026-05-04 13:05 31.98252 34.95022 9293 ft 306 kts 121°
2026-05-04 13:05 31.97275 34.97261 9211 ft 311 kts 121°
2026-05-04 13:06 31.96253 34.99546 10135 ft 311 kts 122°
2026-05-04 13:06 31.95228 35.01813 11012 ft 320 kts 122°
2026-05-04 13:06 31.94169 35.04160 11750 ft 331 kts 122°
2026-05-04 13:06 31.93048 35.06651 12042 ft 358 kts 122°
2026-05-04 13:07 31.91835 35.09347 12207 ft 386 kts 122°
2026-05-04 13:07 31.90537 35.12233 12267 ft 412 kts 122°
2026-05-04 13:07 31.89155 35.15304 12308 ft 435 kts 121°
2026-05-04 13:07 31.87709 35.18520 12345 ft 453 kts 121°
2026-05-04 13:08 31.86246 35.21772 12854 ft 456 kts 121°
2026-05-04 13:08 31.84754 35.25080 13290 ft 461 kts 121°
2026-05-04 13:08 31.83264 35.28376 14275 ft 443 kts 121°
2026-05-04 13:08 31.81870 35.31465 15554 ft 412 kts 118°
2026-05-04 13:09 31.80558 35.34356 16766 ft 392 kts 118°
2026-05-04 13:09 31.79268 35.37193 17446 ft 395 kts 118°
2026-05-04 13:09 31.77972 35.40053 18144 ft 398 kts 118°
2026-05-04 13:09 31.76664 35.42942 18815 ft 402 kts 118°
2026-05-04 13:10 31.75242 35.45787 19377 ft 408 kts 126°
2026-05-04 13:10 31.73023 35.47848 19986 ft 412 kts 155°
2026-05-04 13:10 31.70214 35.48427 20642 ft 415 kts 182°
2026-05-04 13:10 31.67372 35.47777 21261 ft 420 kts 195°
2026-05-04 13:11 31.64518 35.46607 21283 ft 450 kts 203°
2026-05-04 13:11 31.61529 35.45285 21310 ft 478 kts 195°
2026-05-04 13:11 31.58221 35.44361 21302 ft 500 kts 184°
2026-05-04 13:11 31.54677 35.43839 21348 ft 522 kts 182°
2026-05-04 13:12 31.50982 35.43316 21382 ft 546 kts 186°
2026-05-04 13:12 31.47187 35.42462 21586 ft 561 kts 192°
2026-05-04 13:12 31.43430 35.41406 22661 ft 552 kts 198°
2026-05-04 13:12 31.39645 35.40461 23176 ft 561 kts 194°
2026-05-04 13:13 31.35792 35.39745 23775 ft 559 kts 191°
2026-05-04 13:13 31.31905 35.39080 23985 ft 573 kts 189°
2026-05-04 13:13 31.27910 35.38593 23997 ft 590 kts 188°
2026-05-04 13:13 31.23766 35.38141 24003 ft 607 kts 186°
2026-05-04 13:14 31.19503 35.37736 24009 ft 621 kts 186°
2026-05-04 13:14 31.15151 35.37301 24009 ft 629 kts 187°
2026-05-04 13:14 31.10775 35.36818 24012 ft 634 kts 187°
2026-05-04 13:14 31.06416 35.36352 24007 ft 637 kts 186°
2026-05-04 13:15 31.01986 35.35917 24008 ft 636 kts 185°
2026-05-04 13:15 30.97583 35.35382 23986 ft 637 kts 190°
2026-05-04 13:15 30.93279 35.34254 23989 ft 634 kts 199°
2026-05-04 13:15 30.89137 35.32553 23989 ft 627 kts 208°
2026-05-04 13:16 30.85107 35.30543 23998 ft 631 kts 203°
2026-05-04 13:16 30.81107 35.28571 24004 ft 635 kts 203°
2026-05-04 13:16 30.77016 35.26582 24010 ft 638 kts 203°
2026-05-04 13:16 30.72926 35.24573 24008 ft 639 kts 204°
2026-05-04 13:17 30.68832 35.22540 24007 ft 640 kts 204°
2026-05-04 13:17 30.64732 35.20519 24007 ft 640 kts 204°
2026-05-04 13:17 30.60633 35.18522 24007 ft 640 kts 203°
2026-05-04 13:17 30.56474 35.16696 23979 ft 639 kts 196°
2026-05-04 13:18 30.52171 35.15477 23984 ft 633 kts 187°
2026-05-04 13:18 30.47968 35.14656 23600 ft 594 kts 184°
2026-05-04 13:18 30.43992 35.13880 22869 ft 564 kts 182°
2026-05-04 13:18 30.40225 35.13146 22185 ft 533 kts 182°
2026-05-04 13:19 30.36682 35.12475 21286 ft 499 kts 185°
2026-05-04 13:19 30.33349 35.11844 20295 ft 470 kts 185°
2026-05-04 13:19 30.30220 35.11238 19441 ft 442 kts 184°
2026-05-04 13:19 30.27288 35.10701 18576 ft 410 kts 196°
2026-05-04 13:20 30.24562 35.10223 17744 ft 382 kts 197°
2026-05-04 13:20 30.22056 35.09750 17081 ft 355 kts 198°
2026-05-04 13:20 30.19905 35.09336 15886 ft 284 kts 199°
2026-05-04 13:20 30.18044 35.08926 13604 ft 269 kts 200°
2026-05-04 13:21 30.16200 35.08486 11144 ft 270 kts 199°
2026-05-04 13:21 30.14364 35.08101 8872 ft 266 kts 195°
2026-05-04 13:21 30.12524 35.07734 6848 ft 278 kts 193°
2026-05-04 13:21 30.10586 35.07336 6049 ft 285 kts 193°
2026-05-04 13:22 30.08692 35.06950 6001 ft 273 kts 193°
2026-05-04 13:22 30.06786 35.06565 6003 ft 278 kts 191°
2026-05-04 13:22 30.04862 35.06276 5996 ft 279 kts 191°
2026-05-04 13:22 30.02931 35.05874 5997 ft 285 kts 195°
2026-05-04 13:23 30.01000 35.05488 5311 ft 282 kts 191°
2026-05-04 13:23 29.99023 35.05148 4605 ft 287 kts 192°
2026-05-04 13:23 29.97096 35.04818 4479 ft 273 kts 192°
2026-05-04 13:23 29.95202 35.04476 4463 ft 274 kts 192°
2026-05-04 13:24 29.93304 35.04126 4465 ft 279 kts 193°
2026-05-04 13:24 29.91405 35.03784 4457 ft 281 kts 193°
2026-05-04 13:24 29.89515 35.03366 4468 ft 275 kts 196°
2026-05-04 13:25 29.85809 35.02157 4453 ft 277 kts 200°
2026-05-04 13:25 29.83940 35.01558 4461 ft 277 kts 198°
2026-05-04 13:25 29.82079 35.00952 4459 ft 276 kts 202°
2026-05-04 13:25 29.80208 35.00355 4442 ft 277 kts 201°
2026-05-04 13:26 29.78388 34.99731 3845 ft 274 kts 201°
2026-05-04 13:26 29.76521 34.99037 3283 ft 277 kts 202°
2026-05-04 13:26 29.74756 34.98347 3244 ft 260 kts 202°
2026-05-04 13:26 29.73157 34.97752 3231 ft 223 kts 202°
2026-05-04 13:27 29.71735 34.97345 3229 ft 203 kts 197°
2026-05-04 13:27 29.70391 34.97010 3220 ft 184 kts 199°
2026-05-04 13:27 29.69157 34.96693 3234 ft 182 kts 197°
2026-05-04 13:27 29.67935 34.96363 3267 ft 182 kts 199°
2026-05-04 13:28 29.66724 34.96274 3183 ft 177 kts 170°
2026-05-04 13:28 29.65701 34.97015 3053 ft 166 kts 128°
2026-05-04 13:28 29.65294 34.98127 2894 ft 138 kts 88°
2026-05-04 13:28 29.65664 34.99088 2531 ft 137 kts 27°
2026-05-04 13:29 29.66516 34.99593 1975 ft 137 kts 12°
2026-05-04 13:29 29.67431 34.99933 1420 ft 135 kts
2026-05-04 13:29 29.68323 35.00185 1078 ft 126 kts
2026-05-04 13:29 29.69166 35.00412 819 ft 123 kts
2026-05-04 13:30 29.69978 35.00648 565 ft 118 kts 10°
2026-05-04 13:30 29.70770 35.00871 403 ft 120 kts
2026-05-04 13:30 29.71568 35.01091 299 ft 109 kts
2026-05-04 13:30 29.72132 35.01249 294 ft 54 kts 14°
2026-05-04 13:31 29.72365 35.01296 295 ft 16 kts 327°
2026-05-04 13:31 29.72407 35.01181 296 ft 16 kts 281°
2026-05-04 13:31 29.69592 35.00540 667 ft 123 kts 13°
2026-05-04 13:31 29.71330 35.01027 305 ft 117 kts
2026-05-04 13:32 29.72406 35.01107 295 ft 0 kts 253°
2026-05-04 13:32 29.72400 35.01042 294 ft 16 kts 276°
2026-05-04 13:32 29.72427 35.00915 295 ft 16 kts 298°
2026-05-04 13:33 29.72510 35.00870 294 ft 8 kts 288°
2026-05-04 13:33 29.72522 35.00813 294 ft 0 kts 283°
2026-05-04 13:33 29.72525 35.00796 294 ft 0 kts 283°
2026-05-04 13:33 29.72526 35.00795 297 ft 0 kts 283°